SCP
0 0 0 0 0 0 0 0 0 0 0 0 0 0 0 0 0 0 0 0 0 0 0 0 -0 0 0 0 0 0 0 0 0 0 0 0 0 0 0 0 0 0 0 0 0 0 0 0 0 0 0 0 0 0
0 0 0 0 0 0 0 0 0 0 0 0 0 0 0 0 0 0 0 0 0 0 0 -0 0 0 -0 -0 0 0 0 0 0 0 0 0 0 0 -0 -0 -0 -0 0 0 0 0 0 0 0 0 0 0 0 0
0 0 0 0 0 0 0 0 0 0 0 0 0 0 0 0 0 0 0 0 0 0 -0 -0 0 0 -0 0 0 0 0 0 0 0 0 0 0 0 0 0 0 -0 -0 0 0 0 0 0 0 0 0 0 0 0
0 0 0 0 0 0 0 0 0 0 0 0 0 0 0 0 0 0 0 0 0 0 0 -0 -0 0 0 0 0 0 0 0 0 0 0 0 0 0 0 0 0 0 0 0 0 -0 0 0 0 0 0 0 0 0
0 0 0 0 0 0 0 0 0 0 0 0 0 0 0 0 0 0 0 0 0 0 0 -0 -0 -0 0 0 0 0 0 0 0 0 0 0 0 0 0 0 -0 0 0 0 -0 -0 0 -0 0 0 0 0 0 0
0 0 0 0 0 0 0 0 0 0 0 0 0 0 0 0 0 0 0 0 0 0 0 0 0 -0 0 0 0 0 0 0 0 0 0 0 0 0 0 0 -0 -0 0 0 0 0 -0 0 0 0 0 0 0 0
0 0 0 0 0 0 0 0 0 0 0 0 0 0 0 0 0 0 0 0 0 0 -0 0 0 0 0 0 0 0 0 0 0 0 0 0 0 0 0 -0 -0 -0 0 -0 0 -0 -0 -0 0 -0 0 -0 -0 0
0 0 0 0 0 0 0 0 0 0 0 0 0 0 0 0 0 0 0 0 0 0 0 0 0 0 0 0 0 0 0 0 0 0 0 0 0 0 0 -0 -0 -0 -0 0 0 -0 -0 -0 -0 -0 -0 -0 0 0
0 0 0 0 0 0 0 0 0 0 0 0 0 0 0 0 0 0 0 0 0 0 0 0 0 0 0 0 0 0 0 0 0 0 0 0 0 0 0 -0 -0 -0 0 0 0 -0 0 0 0 -0 -0 0 -0 -0
0 0 0 0 0 0 0 0 0 0 0 -0 0 0 0 0 0 0 0 0 0 0 0 0 0 0 0 0 0 0 0 0 0 0 0 0 0 0 -0 -0 -0 -0 -0 0 0 0 -0 -0 -0 -0 -0 -0 -0 -0
0 0 0 0 0 0 0 -0 0 0 0 0 0 0 0 0 0 0 0 -0 -0 -0 0 0 0 0 0 0 0 0 0 0 0 0 0 0 0 0 0 0 0 0 -0 -0 0 -0 -0 -0 -0 0 -0 -0 0 0
0 0 0 0 0 0 -0 -0 0 0 0 0 0 0 0 0 0 0 -0 -0 0 -0 0 -0 -0 -0 0 0 0 0 0 0 0 0 0 0 0 0 0 0 0 0 0 0 0 0 -0 -0 -0 -0 -0 0 0 0
0 0 0 0 0 0 0 0 0 0 0 0 0 0 0 0 -0 0 0 0 -0 -0 -0 0 0 -0 0 0 0 0 0 0 0 0 0 0 0 0 0 0 0 -0 0 0 0 0 0 0 0 0 0 0 0 0
0 0 0 0 0 0 0 0 0 0 0 0 0 0 -0 -0 0 0 0 -0 -0 0 0 0 0 0 0 0 0 0 0 0 0 0 0 0 0 0 0 0 0 0 0 0 0 0 0 0 0 0 0 0 0 0
0 0 -0 -0 -0 -0 -0 0 0 0 0 0 0 -0 0 0 -0 -0 -0 0 0 0 0 0 0 0 0 0 0 0 0 0 0 0 0 0 0 0 0 0 0 0 0 0 0 0 0 0 0 0 0 0 0 0
0 -0 0 0 -0 0 0 0 0 0 0 0 0 0 0 0 0 0 -0 0 0 0 -0 0 0 0 0 0 0 0 0 0 0 0 0 0 0 0 0 -0 0 0 -0 0 0 0 -0 -0 -0 -0 -0 -0 0 0
-0 0 0 -0 0 0 0 0 0 0 0 0 0 0 0 0 0 0 0 0 0 -0 0 0 0 0 0 0 0 0 0 0 0 0 0 0 0 0 -0 -0 -0 -0 0 0 0 0 0 0 0 0 -0 -0 -0 -0
-0 -0 -0 0 0 0 0 0 0 0 0 0 0 0 0 0 0 -0 -0 -0 -0 0 0 0 0 0 0 0 0 0 0 0 0 0 -0 0 0 -0 -0 -0 -0 -0 -0 -0 -0 -0 0 0 0 0 -0 -0 0 0
-0 -0 0 0 0 0 0 0 0 0 0 0 0 0 0 -0 0 -0 -0 -0 0 0 0 0 0 0 -0 0 0 -0 -0 -0 -0 -0 0 -0 0 -0 -0 -0 -0 0 0 0 0 -0 -0 -0 0 0 -0 -0 -0 0
-0 -0 -0 -0 0 0 0 0 0 0 0 0 0 0 0 -0 -0 -0 0 0 0 0 0 0 0 0 0 0 0 0 0 0 0 -0 -0 0 -0 -0 -0 -0 -0 -0 -0 -0 0 0 -0 -0 -0 0 0 0 0 0
0 0 0 0 0 0 0 0 0 0 0 0 0 0 -0 0 0 -0 -0 0 -0 0 0 0 -0 -0 -0 -0 -0 0 0 0 -0 0 -0 -0 0 0 -0 0 -0 -0 0 -0 0 0 0 0 0 0 0 0 0 0
0 -0 0 0 0 0 0 0 0 0 0 0 0 0 0 0 0 -0 -0 0 -0 0 0 0 0 -0 0 0 -0 -0 -0 -0 -0 0 -0 -0 0 0 0 0 0 -0 -0 -0 -0 0 0 0 0 -0 0 -0 -0 -0
-0 0 0 0 0 0 0 0 0 0 0 0 0 0 0 0 0 0 0 0 -0 0 0 0 -0 -0 -0 -0 -0 -0 0 0 0 -0 -0 0 0 0 0 0 0 0 -0 0 -0 0 0 0 -0 -0 -0 -0 -0 -0
0 0 0 0 0 0 0 0 0 0 0 0 0 0 0 0 -0 0 0 0 -0 0 0 0 0 -0 0 -0 -0 0 0 0 0 0 -0 0 0 -0 0 0 0 0 0 0 0 0 0 0 0 -0 -0 -0 -0 -0
0 0 0 0 0 0 0 0 0 0 0 0 0 0 0 -0 -0 0 0 0 0 0 0 0 0 0 -0 0 0 0 -0 0 0 -0 0 0 -0 0 0 0 0 0 0 0 0 0 0 0 0 -0 -0 -0 -0 -0
0 0 0 0 0 0 0 0 0 0 0 0 0 0 0 0 0 0 0 0 0 0 0 0 0 0 -0 -0 -0 -0 -0 -0 -0 -0 -0 0 0 0 0 0 0 0 0 0 0 0 0 0 0 -0 -0 -0 -0 0
0 -0 0 0 0 0 0 0 0 0 0 0 0 0 0 0 0 0 0 0 0 0 0 0 0 0 -0 -0 0 0 0 0 -0 -0 0 0 0 0 0 -0 -0 -0 0 0 0 0 0 0 0 0 0 0 0 0
0 0 0 0 0 0 0 0 0 0 0 0 0 0 0 0 0 0 0 0 0 -0 0 0 0 0 0 0 0 0 0 -0 -0 -0 0 0 -0 -0 -0 0 0 0 -0 -0 0 0 0 0 0 0 0 0 -0 0
0 0 0 0 0 0 0 0 0 0 0 0 0 0 0 0 0 0 0 0 -0 0 0 0 0 0 0 0 0 0 -0 -0 -0 -0 -0 -0 -0 0 0 0 0 -0 -0 -0 -0 -0 -0 0 0 0 0 0 -0 -0
0 0 0 0 0 0 0 0 0 0 0 0 0 0 0 0 0 0 0 0 0 0 0 0 0 0 0 0 0 0 0 -0 -0 -0 -0 0 0 -0 0 0 0 -0 -0 0 0 -0 -0 -0 0 -0 0 0 0 -0
0 0 0 0 0 0 0 0 0 0 0 0 0 0 0 0 0 0 0 0 0 0 0 0 0 0 0 0 0 0 0 0 0 0 0 0 0 0 -0 0 0 0 0 0 -0 -0 -0 -0 -0 -0 -0 0 -0 -0
0 0 0 0 0 0 0 -0 -0 -0 -0 -0 0 0 0 0 0 0 0 -0 0 0 0 0 0 0 0 0 0 0 0 0 0 0 0 0 0 0 -0 0 0 0 0 0 -0 0 -0 -0 -0 -0 -0 -0 -0 0
0 0 0 0 0 0 0 -0 -0 -0 -0 0 -0 0 0 0 0 0 0 0 0 0 0 0 0 0 0 0 0 0 0 0 0 0 0 0 0 0 0 0 0 0 -0 0 0 -0 -0 0 0 -0 0 -0 -0 -0
Wind_Speed_500mb
52 52 50 48 46 47 48 47 44 44 42 40 39 34 29 29 27 29 32 25 33 51 65 68 55 50 48 44 21 36 25 25 25 17 12 19 17 21 26 31 32 30 23 23 24 31 40 15 34 40 10 29 35 33
54 51 49 48 47 47 47 49 47 45 44 42 40 35 32 30 32 31 39 28 39 40 60 70 70 72 77 77 73 67 54 57 17 8 8 7 15 14 32 35 36 28 21 21 26 19 25 32 31 29 21 30 31 31
55 52 49 49 49 49 48 49 49 47 45 43 38 32 34 32 33 29 38 40 41 46 61 60 46 46 47 51 61 66 65 66 63 61 36 14 23 14 17 24 32 36 46 16 27 30 35 58 56 50 48 57 32 37
52 51 50 50 49 48 47 47 47 47 44 40 35 32 34 35 31 29 42 38 35 31 22 45 32 51 56 72 69 65 73 66 64 54 22 8 11 18 18 28 30 29 36 39 44 45 48 61 59 57 50 24 29 47
50 49 48 47 48 45 43 39 37 40 40 38 33 32 34 35 31 33 40 44 40 38 24 68 80 62 39 36 38 44 58 63 54 19 10 9 36 24 22 26 37 37 40 30 33 52 47 57 46 49 52 39 32 36
43 42 43 41 38 36 34 36 35 36 39 32 30 32 35 32 27 27 21 6 12 21 16 10 36 62 33 27 24 43 41 43 30 12 9 17 43 23 10 28 51 59 54 67 57 87 73 72 79 53 56 46 42 43
52 50 48 45 44 39 42 41 39 38 38 33 31 35 34 31 26 27 16 11 8 12 14 16 18 14 38 30 23 29 32 33 26 11 12 20 44 29 7 28 63 64 60 59 42 53 55 50 63 55 53 47 51 43
53 48 45 44 40 38 42 41 35 38 43 33 36 35 32 32 37 39 36 32 38 32 13 7 12 26 18 13 14 22 15 15 16 10 10 17 27 17 11 30 46 43 45 51 44 53 61 53 51 62 60 51 48 51
51 49 50 48 43 40 41 38 31 41 30 35 34 32 32 16 13 13 21 23 11 27 9 13 10 21 10 32 29 22 8 6 12 8 10 9 8 11 20 34 28 30 36 54 53 27 42 29 30 19 15 19 35 47
63 61 58 56 55 49 45 39 32 33 28 26 23 12 11 10 6 12 7 8 13 16 16 14 34 26 41 25 8 10 7 5 5 11 6 7 12 17 35 41 45 43 46 51 42 33 13 9 19 25 27 27 31 33
42 41 37 37 35 38 40 35 31 27 16 10 8 5 3 11 9 7 7 7 14 11 17 20 29 22 18 8 5 8 7 7 7 3 5 5 3 12 50 55 60 54 40 44 39 26 22 17 23 34 21 18 16 24
40 36 39 38 34 32 30 30 27 15 10 12 11 18 14 5 4 6 6 9 11 9 8 10 11 8 10 5 4 7 6 7 9 5 4 5 8 51 62 71 64 32 16 19 19 16 18 27 20 20 29 23 21 26
32 31 31 28 30 25 22 14 10 15 16 13 12 6 7 11 10 10 10 8 7 9 19 31 15 15 3 4 6 5 7 11 26 4 8 5 43 66 73 66 33 45 34 29 21 9 9 10 5 5 2 9 21 40
31 32 25 22 24 23 12 18 12 9 10 10 7 6 9 11 13 13 14 10 11 28 27 21 14 6 4 3 4 7 8 7 7 9 12 14 58 71 70 50 40 43 38 41 42 42 43 39 40 45 47 56 60 60
30 26 24 22 23 28 24 17 12 20 9 8 9 9 16 27 32 33 12 19 20 27 32 23 12 2 4 6 5 7 6 5 9 7 7 46 69 64 45 52 50 45 43 42 44 48 53 58 51 50 51 52 46 43
19 19 17 17 19 18 16 13 20 24 8 9 13 17 31 28 18 17 13 23 25 32 23 10 4 4 6 5 6 7 12 9 7 6 44 54 50 46 48 45 39 38 40 38 41 44 44 46 46 48 43 39 31 27
18 15 8 4 5 13 19 24 21 11 10 8 15 30 32 29 22 20 20 20 19 17 5 8 6 7 10 6 3 5 6 7 28 46 33 22 22 34 31 47 52 52 47 43 42 42 43 37 38 40 38 33 32 35
19 16 13 13 13 19 22 24 7 10 12 20 22 27 23 20 19 14 9 12 11 9 10 4 5 4 8 9 5 4 18 38 41 23 15 23 30 28 27 31 40 45 45 45 43 41 38 37 35 34 30 29 30 29
17 13 12 17 24 17 13 11 10 8 19 26 27 29 26 16 6 10 14 13 12 10 14 7 6 2 6 10 13 32 39 38 40 42 21 5 7 12 17 22 23 22 21 26 20 31 39 29 20 20 23 29 26 16
15 23 12 19 24 5 6 8 12 11 13 14 34 20 4 5 11 10 12 9 8 5 4 5 6 11 13 29 29 33 34 35 33 43 29 7 4 12 19 18 20 22 27 26 26 19 20 23 22 21 17 17 21 18
22 21 15 21 19 6 7 7 10 12 18 21 22 2 2 8 11 3 3 5 2 3 5 8 21 24 16 16 14 17 22 26 36 24 14 14 12 11 10 14 18 20 24 25 25 26 32 29 21 21 29 22 20 16
12 23 17 17 6 8 10 12 10 8 12 20 21 6 5 6 4 2 4 1 6 2 4 20 27 25 17 8 5 10 16 20 22 13 18 25 27 27 24 17 14 20 24 21 20 22 23 20 22 25 23 21 28 32
23 20 10 14 10 8 11 9 7 6 6 7 6 0 3 3 3 4 1 2 6 4 13 21 19 10 15 18 20 20 16 12 14 19 22 21 22 23 25 25 20 15 19 20 18 17 17 18 20 21 20 23 30 32
14 7 5 7 14 9 9 13 13 8 6 12 7 7 6 7 7 4 1 4 6 7 11 18 12 14 14 16 21 28 30 25 21 21 23 18 23 21 26 25 22 18 14 11 11 12 13 15 17 18 17 18 20 19
7 9 8 10 12 9 8 7 10 8 8 10 7 5 7 7 5 6 3 5 8 4 7 14 16 11 12 13 17 19 21 23 22 22 20 25 22 21 25 20 19 17 14 11 8 8 12 13 16 15 15 17 15 19
9 13 12 13 11 10 8 8 10 11 9 5 3 5 7 3 5 5 4 8 7 4 3 8 12 12 10 14 16 15 19 22 26 23 28 31 23 20 24 24 21 25 21 11 4 8 13 15 16 18 20 19 16 20
7 11 17 18 9 14 10 13 11 6 6 5 3 7 7 6 5 5 9 7 7 7 3 3 5 8 11 9 9 13 12 12 14 12 14 22 23 28 27 28 27 24 19 22 9 12 15 17 19 22 22 20 18 19
13 9 12 22 17 14 5 5 6 6 3 5 6 2 2 5 4 6 5 8 8 6 3 1 2 4 19 14 8 11 9 12 19 8 3 17 27 32 34 26 15 31 24 32 19 18 18 18 22 23 27 26 22 25
17 14 7 16 12 9 9 6 5 2 6 12 9 6 6 7 6 8 12 10 9 8 1 3 7 7 7 19 9 10 8 7 20 21 20 22 23 21 22 22 21 22 26 24 22 26 29 31 29 27 26 23 19 21
24 20 12 13 7 6 6 7 6 5 8 8 4 9 10 6 7 6 9 11 10 7 1 2 2 4 5 2 8 8 9 5 5 12 14 14 21 14 17 21 19 19 21 29 35 37 35 30 28 26 22 21 23 23
8 14 7 6 8 12 12 9 8 4 2 1 3 2 8 5 6 9 9 8 6 5 2 1 1 2 2 4 2 4 0 11 6 4 8 8 7 9 9 17 12 13 13 14 15 18 20 19 17 15 15 15 17 14
8 5 9 7 9 7 9 13 10 8 8 7 4 7 6 6 6 9 10 12 9 7 6 4 2 2 3 3 3 4 6 6 4 9 1 5 7 10 13 15 12 9 8 8 9 10 17 15 17 18 16 14 14 16
13 10 9 7 5 7 16 12 9 8 9 8 7 11 10 6 5 7 13 15 11 9 7 5 3 3 4 5 5 5 5 5 6 3 8 6 3 4 1 5 12 9 3 6 8 9 8 9 15 16 17 17 17 16
Wind_Direction_500mb
300 300 300 301 301 302 304 305 306 307 307 307 308 307 308 302 296 290 288 271 273 275 282 277 278 277 283 282 278 286 308 274 269 267 256 266 266 278 285 279 278 269 263 264 262 260 267 278 309 263 351 311 299 331
300 298 296 296 297 297 298 300 303 305 304 303 303 303 306 298 296 279 288 289 288 275 267 286 281 277 272 271 272 273 258 266 268 294 275 296 285 305 292 284 281 273 260 271 256 258 269 254 265 270 296 282 291 289
298 296 296 296 296 297 299 301 303 302 301 299 297 302 305 298 293 278 277 288 291 289 289 277 275 287 279 267 257 248 257 259 264 263 271 261 254 256 259 266 289 290 287 288 278 269 274 271 266 268 260 248 251 265
296 296 298 299 299 298 299 300 302 301 300 296 293 292 301 297 292 271 277 289 284 282 285 293 288 286 282 275 268 261 264 268 268 265 247 239 261 248 261 263 263 258 289 289 288 275 270 256 261 263 262 206 255 264
297 298 298 298 298 299 301 304 306 306 304 299 292 291 299 297 297 281 282 278 264 256 283 294 299 301 301 278 265 259 251 254 264 266 226 238 256 260 245 259 258 259 259 263 266 274 280 280 274 261 263 233 223 242
297 297 300 303 304 304 305 306 305 308 309 302 293 293 295 294 302 301 305 297 191 269 266 298 297 299 293 289 266 256 247 259 255 212 237 246 265 257 256 266 269 274 262 248 248 257 261 259 266 261 250 246 242 251
292 292 293 296 294 296 300 298 292 301 304 295 290 295 292 294 287 258 244 249 259 319 305 295 287 283 320 271 266 284 279 266 235 236 229 254 266 247 249 262 275 286 285 278 261 247 248 248 247 252 252 246 248 255
290 291 287 287 289 295 297 296 290 295 301 292 297 294 291 288 278 267 276 279 259 266 274 262 271 287 328 332 301 285 273 243 217 227 255 251 265 209 255 262 277 284 279 283 271 255 235 238 241 249 246 244 243 240
285 282 279 282 284 286 290 293 291 300 290 305 301 294 293 264 245 269 246 258 241 209 229 239 269 296 284 328 317 300 263 218 211 220 226 242 231 232 269 340 330 313 309 304 302 279 286 257 238 273 309 287 259 248
278 277 278 280 280 280 284 291 285 291 295 309 304 249 227 184 292 321 273 217 209 216 231 260 258 260 294 319 281 299 261 252 248 221 269 224 251 299 319 309 305 296 282 288 299 308 315 327 323 302 297 292 277 278
293 286 278 281 284 276 274 279 285 282 309 271 232 277 356 344 298 235 268 230 198 230 218 242 245 279 280 287 296 275 303 272 272 139 256 264 324 316 327 321 320 307 269 259 265 270 277 284 282 292 291 277 278 260
290 295 277 270 272 273 274 277 252 257 242 273 304 296 276 234 249 267 230 232 218 255 210 258 259 323 321 297 295 283 280 290 270 34 262 281 339 330 328 325 318 342 333 283 236 243 245 269 261 267 274 271 277 271
297 288 289 276 266 257 263 272 273 246 271 265 228 236 208 187 230 231 216 211 231 226 290 356 342 340 265 272 262 271 266 245 323 248 343 346 332 335 337 342 66 32 45 46 55 17 299 262 200 217 346 104 112 114
283 291 270 258 251 252 257 239 247 243 204 241 215 245 239 198 232 209 240 258 304 348 343 353 329 259 233 247 262 263 275 330 304 331 5 343 327 329 337 1 48 34 61 62 65 69 84 94 103 104 109 103 106 102
295 274 259 252 262 240 239 220 231 196 235 240 205 238 230 242 233 254 346 18 4 349 343 334 291 274 236 262 234 280 299 338 20 343 309 316 328 330 9 44 49 51 59 66 72 81 93 101 101 103 106 104 99 107
282 266 281 281 255 214 192 202 190 201 239 236 230 254 273 280 329 325 17 19 1 343 329 289 265 265 249 247 359 11 336 8 327 287 310 326 336 16 32 45 49 58 68 70 80 90 92 94 97 95 89 88 96 124
269 267 291 232 175 178 188 178 193 217 235 233 246 248 258 284 291 341 3 352 341 346 353 308 330 339 308 348 51 18 345 282 293 312 341 350 13 33 31 49 57 64 70 74 80 87 92 98 108 88 81 83 91 113
243 250 252 228 203 184 192 193 235 229 241 247 259 265 270 279 273 304 328 338 325 343 312 272 327 304 328 344 4 359 313 319 334 338 1 41 50 52 55 58 66 65 67 70 72 76 75 83 81 88 88 89 88 89
245 236 174 166 175 163 173 204 228 264 244 252 242 240 239 244 21 310 305 296 297 280 287 289 272 357 16 339 324 315 314 322 323 340 334 283 27 45 56 55 57 60 70 74 92 77 70 68 51 75 85 72 94 100
210 164 197 187 183 169 231 209 205 249 276 270 282 255 296 329 311 311 307 308 322 323 343 352 20 340 301 300 303 301 312 328 326 323 353 64 21 40 43 49 47 65 58 56 54 62 69 74 71 69 80 86 99 102
164 183 187 181 191 250 270 258 229 246 280 280 288 267 319 296 282 175 321 308 137 19 348 2 315 321 325 314 309 310 326 345 323 326 344 18 40 67 40 48 47 43 60 54 56 52 49 49 58 66 74 80 90 109
183 161 150 178 214 223 253 237 250 287 264 273 299 322 314 312 302 173 305 220 89 45 7 329 332 334 344 20 2 319 316 323 324 359 15 22 43 44 39 38 52 59 57 36 45 61 55 49 55 61 75 72 95 114
149 167 179 195 220 221 256 221 244 244 255 277 259 150 283 260 292 20 96 66 99 107 340 349 352 10 20 15 2 5 354 359 26 54 61 62 49 51 45 43 45 55 58 48 61 68 67 66 59 71 79 101 103 108
172 202 243 223 207 241 207 201 224 238 262 240 241 177 205 199 161 109 283 106 113 93 0 17 21 31 34 31 21 27 24 30 39 48 52 51 60 51 46 49 52 46 43 52 73 78 82 82 76 79 96 116 116 103
179 224 207 239 231 239 213 229 188 220 250 224 250 191 151 179 163 160 159 189 110 80 26 3 18 30 21 21 19 24 20 16 6 39 46 46 45 52 43 44 32 28 28 47 61 84 89 107 109 96 108 123 129 120
227 214 199 215 203 211 218 201 207 241 281 268 233 153 156 185 158 124 142 132 127 147 79 29 20 16 17 13 9 14 10 10 9 42 29 26 48 41 48 57 36 28 27 23 31 111 107 106 106 109 113 126 122 122
247 231 206 221 215 201 235 232 222 223 273 251 205 184 192 188 119 99 117 136 162 162 156 27 10 17 11 352 350 4 5 8 5 13 25 23 49 49 47 40 30 25 30 28 70 116 110 105 105 114 116 122 113 124
258 289 224 195 197 209 242 235 225 242 287 305 266 230 77 66 78 104 167 171 164 161 170 166 41 12 20 17 22 5 3 349 337 324 20 67 53 39 40 38 38 36 44 64 95 85 98 108 112 113 122 126 121 123
243 227 223 212 200 208 227 228 253 258 305 328 336 24 76 84 107 123 147 154 152 144 216 273 222 219 323 13 14 29 30 20 42 49 86 69 47 34 29 42 58 45 39 49 90 94 91 107 110 108 109 116 129 134
242 209 222 173 195 245 166 209 229 253 298 318 313 115 103 111 132 137 147 164 168 189 194 263 344 210 261 314 34 44 23 35 58 56 59 52 33 32 37 48 60 62 71 80 91 103 100 104 100 96 97 106 120 124
229 201 207 243 249 264 235 202 201 213 274 17 18 58 113 203 218 188 187 183 179 203 231 145 6 12 74 87 32 17 22 336 309 40 119 61 39 45 47 20 57 64 87 96 114 120 121 122 124 118 105 106 118 122
174 185 232 257 269 279 199 195 200 209 207 190 151 131 148 154 185 185 204 187 185 176 190 165 267 158 95 71 48 41 153 322 261 222 113 73 83 101 98 40 41 66 87 104 107 136 162 146 142 144 139 137 133 131
191 191 212 227 253 234 212 190 217 201 199 208 179 174 191 171 154 156 174 181 175 168 170 167 156 153 123 114 110 67 78 325 344 290 228 209 128 88 19 115 137 98 43 125 113 119 124 141 149 158 160 153 157 166
Wind_Speed_850mb
52 52 50 48 46 47 48 47 44 44 42 40 39 34 29 29 27 29 32 25 33 51 65 68 55 50 48 44 21 36 25 25 25 17 12 19 17 21 26 31 32 30 23 23 24 31 40 15 34 40 10 29 35 33
54 51 49 48 47 47 47 49 47 45 44 42 40 35 32 30 32 31 39 28 39 40 60 70 70 72 77 77 73 67 54 57 17 8 8 7 15 14 32 35 36 28 21 21 26 19 25 32 31 29 21 30 31 31
55 52 49 49 49 49 48 49 49 47 45 43 38 32 34 32 33 29 38 40 41 46 61 60 46 46 47 51 61 66 65 66 63 61 36 14 23 14 17 24 32 36 46 16 27 30 35 58 56 50 48 57 32 37
52 51 50 50 49 48 47 47 47 47 44 40 35 32 34 35 31 29 42 38 35 31 22 45 32 51 56 72 69 65 73 66 64 54 22 8 11 18 18 28 30 29 36 39 44 45 48 61 59 57 50 24 29 47
50 49 48 47 48 45 43 39 37 40 40 38 33 32 34 35 31 33 40 44 40 38 24 68 80 62 39 36 38 44 58 63 54 19 10 9 36 24 22 26 37 37 40 30 33 52 47 57 46 49 52 39 32 36
43 42 43 41 38 36 34 36 35 36 39 32 30 32 35 32 27 27 21 6 12 21 16 10 36 62 33 27 24 43 41 43 30 12 9 17 43 23 10 28 51 59 54 67 57 87 73 72 79 53 56 46 42 43
52 50 48 45 44 39 42 41 39 38 38 33 31 35 34 31 26 27 16 11 8 12 14 16 18 14 38 30 23 29 32 33 26 11 12 20 44 29 7 28 63 64 60 59 42 53 55 50 63 55 53 47 51 43
53 48 45 44 40 38 42 41 35 38 43 33 36 35 32 32 37 39 36 32 38 32 13 7 12 26 18 13 14 22 15 15 16 10 10 17 27 17 11 30 46 43 45 51 44 53 61 53 51 62 60 51 48 51
51 49 50 48 43 40 41 38 31 41 30 35 34 32 32 16 13 13 21 23 11 27 9 13 10 21 10 32 29 22 8 6 12 8 10 9 8 11 20 34 28 30 36 54 53 27 42 29 30 19 15 19 35 47
63 61 58 56 55 49 45 39 32 33 28 26 23 12 11 10 6 12 7 8 13 16 16 14 34 26 41 25 8 10 7 5 5 11 6 7 12 17 35 41 45 43 46 51 42 33 13 9 19 25 27 27 31 33
42 41 37 37 35 38 40 35 31 27 16 10 8 5 3 11 9 7 7 7 14 11 17 20 29 22 18 8 5 8 7 7 7 3 5 5 3 12 50 55 60 54 40 44 39 26 22 17 23 34 21 18 16 24
40 36 39 38 34 32 30 30 27 15 10 12 11 18 14 5 4 6 6 9 11 9 8 10 11 8 10 5 4 7 6 7 9 5 4 5 8 51 62 71 64 32 16 19 19 16 18 27 20 20 29 23 21 26
32 31 31 28 30 25 22 14 10 15 16 13 12 6 7 11 10 10 10 8 7 9 19 31 15 15 3 4 6 5 7 11 26 4 8 5 43 66 73 66 33 45 34 29 21 9 9 10 5 5 2 9 21 40
31 32 25 22 24 23 12 18 12 9 10 10 7 6 9 11 13 13 14 10 11 28 27 21 14 6 4 3 4 7 8 7 7 9 12 14 58 71 70 50 40 43 38 41 42 42 43 39 40 45 47 56 60 60
30 26 24 22 23 28 24 17 12 20 9 8 9 9 16 27 32 33 12 19 20 27 32 23 12 2 4 6 5 7 6 5 9 7 7 46 69 64 45 52 50 45 43 42 44 48 53 58 51 50 51 52 46 43
19 19 17 17 19 18 16 13 20 24 8 9 13 17 31 28 18 17 13 23 25 32 23 10 4 4 6 5 6 7 12 9 7 6 44 54 50 46 48 45 39 38 40 38 41 44 44 46 46 48 43 39 31 27
18 15 8 4 5 13 19 24 21 11 10 8 15 30 32 29 22 20 20 20 19 17 5 8 6 7 10 6 3 5 6 7 28 46 33 22 22 34 31 47 52 52 47 43 42 42 43 37 38 40 38 33 32 35
19 16 13 13 13 19 22 24 7 10 12 20 22 27 23 20 19 14 9 12 11 9 10 4 5 4 8 9 5 4 18 38 41 23 15 23 30 28 27 31 40 45 45 45 43 41 38 37 35 34 30 29 30 29
17 13 12 17 24 17 13 11 10 8 19 26 27 29 26 16 6 10 14 13 12 10 14 7 6 2 6 10 13 32 39 38 40 42 21 5 7 12 17 22 23 22 21 26 20 31 39 29 20 20 23 29 26 16
15 23 12 19 24 5 6 8 12 11 13 14 34 20 4 5 11 10 12 9 8 5 4 5 6 11 13 29 29 33 34 35 33 43 29 7 4 12 19 18 20 22 27 26 26 19 20 23 22 21 17 17 21 18
22 21 15 21 19 6 7 7 10 12 18 21 22 2 2 8 11 3 3 5 2 3 5 8 21 24 16 16 14 17 22 26 36 24 14 14 12 11 10 14 18 20 24 25 25 26 32 29 21 21 29 22 20 16
12 23 17 17 6 8 10 12 10 8 12 20 21 6 5 6 4 2 4 1 6 2 4 20 27 25 17 8 5 10 16 20 22 13 18 25 27 27 24 17 14 20 24 21 20 22 23 20 22 25 23 21 28 32
23 20 10 14 10 8 11 9 7 6 6 7 6 0 3 3 3 4 1 2 6 4 13 21 19 10 15 18 20 20 16 12 14 19 22 21 22 23 25 25 20 15 19 20 18 17 17 18 20 21 20 23 30 32
14 7 5 7 14 9 9 13 13 8 6 12 7 7 6 7 7 4 1 4 6 7 11 18 12 14 14 16 21 28 30 25 21 21 23 18 23 21 26 25 22 18 14 11 11 12 13 15 17 18 17 18 20 19
7 9 8 10 12 9 8 7 10 8 8 10 7 5 7 7 5 6 3 5 8 4 7 14 16 11 12 13 17 19 21 23 22 22 20 25 22 21 25 20 19 17 14 11 8 8 12 13 16 15 15 17 15 19
9 13 12 13 11 10 8 8 10 11 9 5 3 5 7 3 5 5 4 8 7 4 3 8 12 12 10 14 16 15 19 22 26 23 28 31 23 20 24 24 21 25 21 11 4 8 13 15 16 18 20 19 16 20
7 11 17 18 9 14 10 13 11 6 6 5 3 7 7 6 5 5 9 7 7 7 3 3 5 8 11 9 9 13 12 12 14 12 14 22 23 28 27 28 27 24 19 22 9 12 15 17 19 22 22 20 18 19
13 9 12 22 17 14 5 5 6 6 3 5 6 2 2 5 4 6 5 8 8 6 3 1 2 4 19 14 8 11 9 12 19 8 3 17 27 32 34 26 15 31 24 32 19 18 18 18 22 23 27 26 22 25
17 14 7 16 12 9 9 6 5 2 6 12 9 6 6 7 6 8 12 10 9 8 1 3 7 7 7 19 9 10 8 7 20 21 20 22 23 21 22 22 21 22 26 24 22 26 29 31 29 27 26 23 19 21
24 20 12 13 7 6 6 7 6 5 8 8 4 9 10 6 7 6 9 11 10 7 1 2 2 4 5 2 8 8 9 5 5 12 14 14 21 14 17 21 19 19 21 29 35 37 35 30 28 26 22 21 23 23
8 14 7 6 8 12 12 9 8 4 2 1 3 2 8 5 6 9 9 8 6 5 2 1 1 2 2 4 2 4 0 11 6 4 8 8 7 9 9 17 12 13 13 14 15 18 20 19 17 15 15 15 17 14
8 5 9 7 9 7 9 13 10 8 8 7 4 7 6 6 6 9 10 12 9 7 6 4 2 2 3 3 3 4 6 6 4 9 1 5 7 10 13 15 12 9 8 8 9 10 17 15 17 18 16 14 14 16
13 10 9 7 5 7 16 12 9 8 9 8 7 11 10 6 5 7 13 15 11 9 7 5 3 3 4 5 5 5 5 5 6 3 8 6 3 4 1 5 12 9 3 6 8 9 8 9 15 16 17 17 17 16
Wind_Direction_850mb
300 300 300 301 301 302 304 305 306 307 307 307 308 307 308 302 296 290 288 271 273 275 282 277 278 277 283 282 278 286 308 274 269 267 256 266 266 278 285 279 278 269 263 264 262 260 267 278 309 263 351 311 299 331
300 298 296 296 297 297 298 300 303 305 304 303 303 303 306 298 296 279 288 289 288 275 267 286 281 277 272 271 272 273 258 266 268 294 275 296 285 305 292 284 281 273 260 271 256 258 269 254 265 270 296 282 291 289
298 296 296 296 296 297 299 301 303 302 301 299 297 302 305 298 293 278 277 288 291 289 289 277 275 287 279 267 257 248 257 259 264 263 271 261 254 256 259 266 289 290 287 288 278 269 274 271 266 268 260 248 251 265
296 296 298 299 299 298 299 300 302 301 300 296 293 292 301 297 292 271 277 289 284 282 285 293 288 286 282 275 268 261 264 268 268 265 247 239 261 248 261 263 263 258 289 289 288 275 270 256 261 263 262 206 255 264
297 298 298 298 298 299 301 304 306 306 304 299 292 291 299 297 297 281 282 278 264 256 283 294 299 301 301 278 265 259 251 254 264 266 226 238 256 260 245 259 258 259 259 263 266 274 280 280 274 261 263 233 223 242
297 297 300 303 304 304 305 306 305 308 309 302 293 293 295 294 302 301 305 297 191 269 266 298 297 299 293 289 266 256 247 259 255 212 237 246 265 257 256 266 269 274 262 248 248 257 261 259 266 261 250 246 242 251
292 292 293 296 294 296 300 298 292 301 304 295 290 295 292 294 287 258 244 249 259 319 305 295 287 283 320 271 266 284 279 266 235 236 229 254 266 247 249 262 275 286 285 278 261 247 248 248 247 252 252 246 248 255
290 291 287 287 289 295 297 296 290 295 301 292 297 294 291 288 278 267 276 279 259 266 274 262 271 287 328 332 301 285 273 243 217 227 255 251 265 209 255 262 277 284 279 283 271 255 235 238 241 249 246 244 243 240
285 282 279 282 284 286 290 293 291 300 290 305 301 294 293 264 245 269 246 258 241 209 229 239 269 296 284 328 317 300 263 218 211 220 226 242 231 232 269 340 330 313 309 304 302 279 286 257 238 273 309 287 259 248
278 277 278 280 280 280 284 291 285 291 295 309 304 249 227 184 292 321 273 217 209 216 231 260 258 260 294 319 281 299 261 252 248 221 269 224 251 299 319 309 305 296 282 288 299 308 315 327 323 302 297 292 277 278
293 286 278 281 284 276 274 279 285 282 309 271 232 277 356 344 298 235 268 230 198 230 218 242 245 279 280 287 296 275 303 272 272 139 256 264 324 316 327 321 320 307 269 259 265 270 277 284 282 292 291 277 278 260
290 295 277 270 272 273 274 277 252 257 242 273 304 296 276 234 249 267 230 232 218 255 210 258 259 323 321 297 295 283 280 290 270 34 262 281 339 330 328 325 318 342 333 283 236 243 245 269 261 267 274 271 277 271
297 288 289 276 266 257 263 272 273 246 271 265 228 236 208 187 230 231 216 211 231 226 290 356 342 340 265 272 262 271 266 245 323 248 343 346 332 335 337 342 66 32 45 46 55 17 299 262 200 217 346 104 112 114
283 291 270 258 251 252 257 239 247 243 204 241 215 245 239 198 232 209 240 258 304 348 343 353 329 259 233 247 262 263 275 330 304 331 5 343 327 329 337 1 48 34 61 62 65 69 84 94 103 104 109 103 106 102
295 274 259 252 262 240 239 220 231 196 235 240 205 238 230 242 233 254 346 18 4 349 343 334 291 274 236 262 234 280 299 338 20 343 309 316 328 330 9 44 49 51 59 66 72 81 93 101 101 103 106 104 99 107
282 266 281 281 255 214 192 202 190 201 239 236 230 254 273 280 329 325 17 19 1 343 329 289 265 265 249 247 359 11 336 8 327 287 310 326 336 16 32 45 49 58 68 70 80 90 92 94 97 95 89 88 96 124
269 267 291 232 175 178 188 178 193 217 235 233 246 248 258 284 291 341 3 352 341 346 353 308 330 339 308 348 51 18 345 282 293 312 341 350 13 33 31 49 57 64 70 74 80 87 92 98 108 88 81 83 91 113
243 250 252 228 203 184 192 193 235 229 241 247 259 265 270 279 273 304 328 338 325 343 312 272 327 304 328 344 4 359 313 319 334 338 1 41 50 52 55 58 66 65 67 70 72 76 75 83 81 88 88 89 88 89
245 236 174 166 175 163 173 204 228 264 244 252 242 240 239 244 21 310 305 296 297 280 287 289 272 357 16 339 324 315 314 322 323 340 334 283 27 45 56 55 57 60 70 74 92 77 70 68 51 75 85 72 94 100
210 164 197 187 183 169 231 209 205 249 276 270 282 255 296 329 311 311 307 308 322 323 343 352 20 340 301 300 303 301 312 328 326 323 353 64 21 40 43 49 47 65 58 56 54 62 69 74 71 69 80 86 99 102
164 183 187 181 191 250 270 258 229 246 280 280 288 267 319 296 282 175 321 308 137 19 348 2 315 321 325 314 309 310 326 345 323 326 344 18 40 67 40 48 47 43 60 54 56 52 49 49 58 66 74 80 90 109
183 161 150 178 214 223 253 237 250 287 264 273 299 322 314 312 302 173 305 220 89 45 7 329 332 334 344 20 2 319 316 323 324 359 15 22 43 44 39 38 52 59 57 36 45 61 55 49 55 61 75 72 95 114
149 167 179 195 220 221 256 221 244 244 255 277 259 150 283 260 292 20 96 66 99 107 340 349 352 10 20 15 2 5 354 359 26 54 61 62 49 51 45 43 45 55 58 48 61 68 67 66 59 71 79 101 103 108
172 202 243 223 207 241 207 201 224 238 262 240 241 177 205 199 161 109 283 106 113 93 0 17 21 31 34 31 21 27 24 30 39 48 52 51 60 51 46 49 52 46 43 52 73 78 82 82 76 79 96 116 116 103
179 224 207 239 231 239 213 229 188 220 250 224 250 191 151 179 163 160 159 189 110 80 26 3 18 30 21 21 19 24 20 16 6 39 46 46 45 52 43 44 32 28 28 47 61 84 89 107 109 96 108 123 129 120
227 214 199 215 203 211 218 201 207 241 281 268 233 153 156 185 158 124 142 132 127 147 79 29 20 16 17 13 9 14 10 10 9 42 29 26 48 41 48 57 36 28 27 23 31 111 107 106 106 109 113 126 122 122
247 231 206 221 215 201 235 232 222 223 273 251 205 184 192 188 119 99 117 136 162 162 156 27 10 17 11 352 350 4 5 8 5 13 25 23 49 49 47 40 30 25 30 28 70 116 110 105 105 114 116 122 113 124
258 289 224 195 197 209 242 235 225 242 287 305 266 230 77 66 78 104 167 171 164 161 170 166 41 12 20 17 22 5 3 349 337 324 20 67 53 39 40 38 38 36 44 64 95 85 98 108 112 113 122 126 121 123
243 227 223 212 200 208 227 228 253 258 305 328 336 24 76 84 107 123 147 154 152 144 216 273 222 219 323 13 14 29 30 20 42 49 86 69 47 34 29 42 58 45 39 49 90 94 91 107 110 108 109 116 129 134
242 209 222 173 195 245 166 209 229 253 298 318 313 115 103 111 132 137 147 164 168 189 194 263 344 210 261 314 34 44 23 35 58 56 59 52 33 32 37 48 60 62 71 80 91 103 100 104 100 96 97 106 120 124
229 201 207 243 249 264 235 202 201 213 274 17 18 58 113 203 218 188 187 183 179 203 231 145 6 12 74 87 32 17 22 336 309 40 119 61 39 45 47 20 57 64 87 96 114 120 121 122 124 118 105 106 118 122
174 185 232 257 269 279 199 195 200 209 207 190 151 131 148 154 185 185 204 187 185 176 190 165 267 158 95 71 48 41 153 322 261 222 113 73 83 101 98 40 41 66 87 104 107 136 162 146 142 144 139 137 133 131
191 191 212 227 253 234 212 190 217 201 199 208 179 174 191 171 154 156 174 181 175 168 170 167 156 153 123 114 110 67 78 325 344 290 228 209 128 88 19 115 137 98 43 125 113 119 124 141 149 158 160 153 157 166